,,,PA_Meas_PMT16A,,PR_Meas_QMR101_102,,RH_Meas_QMH101,,SR_Meas_QMS101,,TA_Meas_QMH101,,GenWind,,GenWind,
date,time,status,PA,status,PR,status,RH,status,SR,status,TA,status,DirAvg,status,SpdAvg,
2010-07-26, 00:00:04,VALID,1000.48,VALID,0,VALID,93.8062,VALID,0,VALID,23.742,VALID,236,VALID,1.46016,
2010-07-26, 00:01:04,VALID,1000.46,VALID,0,VALID,93.8291,VALID,0,VALID,23.7207,VALID,226,VALID,1.21523,
2010-07-26, 00:02:04,VALID,1000.44,VALID,0,VALID,93.8291,VALID,0,VALID,23.7207,VALID,222,VALID,1.09727,
2010-07-26, 00:03:04,VALID,1000.48,VALID,0,VALID,93.7985,VALID,0,VALID,23.7207,VALID,224,VALID,1.33867,
2010-07-26, 00:04:04,VALID,1000.48,VALID,0,VALID,93.7985,VALID,0,VALID,23.7207,VALID,233,VALID,0.946094,
2010-07-26, 00:05:04,VALID,1000.47,VALID,0,VALID,93.8062,VALID,0,VALID,23.6817,VALID,238,VALID,1.34609,
2010-07-26, 00:06:04,VALID,1000.45,VALID,0,VALID,93.768,VALID,0,VALID,23.6817,VALID,219,VALID,1.28359,
2010-07-26, 00:07:04,VALID,1000.42,VALID,0,VALID,93.7528,VALID,0,VALID,23.6817,VALID,223,VALID,0.964844,
2010-07-26, 00:08:04,VALID,1000.43,VALID,0,VALID,93.7604,VALID,0,VALID,23.703,VALID,230,VALID,0.961328,
2010-07-26, 00:09:04,VALID,1000.43,VALID,0,VALID,93.7375,VALID,0,VALID,23.7012,VALID,235,VALID,1.0832,
2010-07-26, 00:10:04,VALID,1000.43,VALID,0,VALID,93.7299,VALID,0,VALID,23.7012,VALID,239,VALID,0.833984,
2010-07-26, 00:11:04,VALID,1000.39,VALID,0,VALID,93.7299,VALID,0,VALID,23.7225,VALID,217,VALID,0.955078,
2010-07-26, 00:12:04,VALID,1000.43,VALID,0,VALID,93.6994,VALID,0,VALID,23.7012,VALID,235,VALID,0.721484,
2010-07-26, 00:13:04,VALID,1000.42,VALID,0,VALID,93.7223,VALID,0,VALID,23.703,VALID,214,VALID,0.80625,
2010-07-26, 00:14:04,VALID,1000.4,VALID,0,VALID,93.6994,VALID,0,VALID,23.7012,VALID,234,VALID,1.07852,
2010-07-26, 00:15:04,VALID,1000.37,VALID,0,VALID,93.6765,VALID,0,VALID,23.6799,VALID,232,VALID,1.01953,
2010-07-26, 00:16:04,VALID,1000.37,VALID,0,VALID,93.6536,VALID,0,VALID,23.6817,VALID,230,VALID,0.574219,
2010-07-26, 00:17:04,VALID,1000.38,VALID,0,VALID,93.6231,VALID,0,VALID,23.6817,VALID,229,VALID,0,
2010-07-26, 00:18:04,VALID,1000.41,VALID,0,VALID,93.6078,VALID,0,VALID,23.6817,VALID,202,VALID,0.214453,
2010-07-26, 00:19:04,VALID,1000.47,VALID,0,VALID,93.6078,VALID,0,VALID,23.6817,VALID,180,VALID,1.42383,
2010-07-26, 00:20:04,VALID,1000.43,VALID,0,VALID,93.5926,VALID,0,VALID,23.7012,VALID,192,VALID,1.98633,
2010-07-26, 00:21:04,VALID,1000.43,VALID,0,VALID,93.5849,VALID,0,VALID,23.7793,VALID,173,VALID,1.48242,
2010-07-26, 00:22:04,VALID,1000.4,VALID,0,VALID,93.5773,VALID,0,VALID,23.7793,VALID,155,VALID,0.958984,
2010-07-26, 00:23:04,VALID,1000.38,VALID,0,VALID,93.5697,VALID,0,VALID,23.7793,VALID,153,VALID,0.808594,
2010-07-26, 00:24:04,VALID,1000.37,VALID,0,VALID,93.5849,VALID,0,VALID,23.7793,VALID,163,VALID,0.312109,
2010-07-26, 00:25:04,VALID,1000.37,VALID,0,VALID,93.5697,VALID,0,VALID,23.7597,VALID,154,VALID,0.639844,
2010-07-26, 00:26:04,VALID,1000.38,VALID,0,VALID,93.5773,VALID,0,VALID,23.7597,VALID,146,VALID,0.858984,
2010-07-26, 00:27:04,VALID,1000.41,VALID,0,VALID,93.5697,VALID,0,VALID,23.7402,VALID,138,VALID,0.962891,
2010-07-26, 00:28:04,VALID,1000.39,VALID,0,VALID,93.5926,VALID,0,VALID,23.7207,VALID,137,VALID,1.01133,
2010-07-26, 00:29:04,VALID,1000.36,VALID,0,VALID,93.6002,VALID,0,VALID,23.7207,VALID,126,VALID,0.882031,
2010-07-26, 00:30:04,VALID,1000.35,VALID,0,VALID,93.6078,VALID,0,VALID,23.7012,VALID,125,VALID,0.957422,
2010-07-26, 00:31:04,VALID,1000.34,VALID,0,VALID,93.6002,VALID,0,VALID,23.6817,VALID,125,VALID,1.06836,
2010-07-26, 00:32:04,VALID,1000.32,VALID,0,VALID,93.6078,VALID,0,VALID,23.6817,VALID,124,VALID,1.07852,
2010-07-26, 00:33:04,VALID,1000.28,VALID,0,VALID,93.6002,VALID,0,VALID,23.6622,VALID,108,VALID,1.04141,
2010-07-26, 00:34:04,VALID,1000.25,VALID,0,VALID,93.6154,VALID,0,VALID,23.6835,VALID,99,VALID,1.25508,
2010-07-26, 00:35:04,VALID,1000.24,VALID,0,VALID,93.6231,VALID,0,VALID,23.6622,VALID,99,VALID,0.869531,
2010-07-26, 00:36:04,VALID,1000.23,VALID,0,VALID,93.6536,VALID,0,VALID,23.6622,VALID,99,VALID,0.642969,
2010-07-26, 00:37:04,VALID,1000.2,VALID,0,VALID,93.646,VALID,0,VALID,23.6427,VALID,109,VALID,0.845312,
2010-07-26, 00:38:04,VALID,1000.19,VALID,0,VALID,93.6383,VALID,0,VALID,23.664,VALID,109,VALID,0.459766,
2010-07-26, 00:39:04,VALID,1000.22,VALID,0,VALID,93.6765,VALID,0,VALID,23.6622,VALID,109,VALID,0.252734,
2010-07-26, 00:40:04,VALID,1000.16,VALID,0,VALID,93.6841,VALID,0,VALID,23.6427,VALID,124,VALID,0.261328,
2010-07-26, 00:41:04,VALID,1000.15,VALID,0,VALID,93.6917,VALID,0,VALID,23.6622,VALID,172,VALID,0.600781,
2010-07-26, 00:42:04,VALID,1000.13,VALID,0,VALID,93.6841,VALID,0,VALID,23.7012,VALID,171,VALID,0.716406,
2010-07-26, 00:43:04,VALID,1000.13,VALID,0,VALID,93.6688,VALID,0,VALID,23.6604,VALID,167,VALID,0.902344,
2010-07-26, 00:44:04,VALID,1000.12,VALID,0,VALID,93.6917,VALID,0,VALID,23.6622,VALID,165,VALID,0.816797,
2010-07-26, 00:45:04,VALID,1000.11,VALID,0,VALID,93.6841,VALID,0,VALID,23.6622,VALID,165,VALID,1.20625,
2010-07-26, 00:46:04,VALID,1000.05,VALID,0,VALID,93.6917,VALID,0,VALID,23.7012,VALID,158,VALID,1.24805,
2010-07-26, 00:47:04,VALID,1000.03,VALID,0,VALID,93.7146,VALID,0,VALID,23.6817,VALID,141,VALID,0.867578,
2010-07-26, 00:48:04,VALID,1000.02,VALID,0,VALID,93.7146,VALID,0,VALID,23.7012,VALID,139,VALID,0.766016,
2010-07-26, 00:49:04,VALID,999.967,VALID,0,VALID,93.707,VALID,0,VALID,23.7012,VALID,139,VALID,0,
2010-07-26, 00:50:04,VALID,999.935,VALID,0,VALID,93.707,VALID,0,VALID,23.6622,VALID,139,VALID,0,
2010-07-26, 00:51:04,VALID,999.909,VALID,0,VALID,93.7146,VALID,0,VALID,23.6622,VALID,37,VALID,0.447656,
2010-07-26, 00:52:04,VALID,999.878,VALID,0,VALID,93.7223,VALID,0,VALID,23.664,VALID,32,VALID,0.789453,
2010-07-26, 00:53:04,VALID,999.859,VALID,0,VALID,93.707,VALID,0,VALID,23.6232,VALID,32,VALID,0.755859,
2010-07-26, 00:54:04,VALID,999.911,VALID,0,VALID,93.6994,VALID,0,VALID,23.625,VALID,41,VALID,0.654688,
2010-07-26, 00:55:04,VALID,999.858,VALID,0,VALID,93.6917,VALID,0,VALID,23.5841,VALID,33,VALID,0.871484,
2010-07-26, 00:56:04,VALID,999.804,VALID,0,VALID,93.6765,VALID,0,VALID,23.5451,VALID,357,VALID,1.36016,
2010-07-26, 00:57:04,VALID,999.827,VALID,0,VALID,93.707,VALID,0,VALID,23.5451,VALID,9,VALID,1.22109,
2010-07-26, 00:58:04,VALID,999.847,VALID,0,VALID,93.7223,VALID,0,VALID,23.5451,VALID,13,VALID,0.985547,
2010-07-26, 00:59:04,VALID,999.844,VALID,0,VALID,93.7146,VALID,0,VALID,23.5451,VALID,9,VALID,1.25391,
2010-07-26, 01:00:04,VALID,999.861,VALID,0,VALID,93.7375,VALID,0,VALID,23.5646,VALID,358,VALID,0.928516,
2010-07-26, 01:01:04,VALID,999.855,VALID,0,VALID,93.7146,VALID,0,VALID,23.5451,VALID,1,VALID,0.762891,
2010-07-26, 01:02:04,VALID,999.873,VALID,0,VALID,93.7146,VALID,0,VALID,23.5859,VALID,95,VALID,0.639844,
2010-07-26, 01:03:04,VALID,999.929,VALID,0,VALID,93.7223,VALID,0,VALID,23.5646,VALID,85,VALID,0.812891,
2010-07-26, 01:04:04,VALID,999.849,VALID,0,VALID,93.7375,VALID,0,VALID,23.5841,VALID,91,VALID,0.525391,
2010-07-26, 01:05:04,VALID,999.83,VALID,0,VALID,93.7451,VALID,0,VALID,23.5841,VALID,68,VALID,0,
2010-07-26, 01:06:04,VALID,999.792,VALID,0,VALID,93.7604,VALID,0,VALID,23.5646,VALID,68,VALID,0,
2010-07-26, 01:07:04,VALID,999.82,VALID,0,VALID,93.768,VALID,0,VALID,23.5646,VALID,298,VALID,0.114844,
2010-07-26, 01:08:04,VALID,999.813,VALID,0,VALID,93.7528,VALID,0,VALID,23.5841,VALID,292,VALID,0,
2010-07-26, 01:09:04,VALID,999.828,VALID,0,VALID,93.7833,VALID,0,VALID,23.5646,VALID,292,VALID,0,
2010-07-26, 01:10:04,VALID,999.844,VALID,0,VALID,93.7604,VALID,0,VALID,23.5646,VALID,292,VALID,0,
2010-07-26, 01:11:04,VALID,999.843,VALID,0,VALID,93.7833,VALID,0,VALID,23.5646,VALID,238,VALID,0,
2010-07-26, 01:12:04,VALID,999.849,VALID,0,VALID,93.768,VALID,0,VALID,23.5841,VALID,243,VALID,0,
2010-07-26, 01:13:04,VALID,999.894,VALID,0,VALID,93.7909,VALID,0,VALID,23.5841,VALID,359,VALID,0,
2010-07-26, 01:14:04,VALID,999.954,VALID,0,VALID,93.7909,VALID,0,VALID,23.5841,VALID,9,VALID,0,
2010-07-26, 01:15:04,VALID,999.954,VALID,0,VALID,93.8138,VALID,0,VALID,23.5841,VALID,9,VALID,0,
2010-07-26, 01:16:04,VALID,999.925,VALID,0,VALID,93.7833,VALID,0,VALID,23.5646,VALID,9,VALID,0,
2010-07-26, 01:17:04,VALID,999.886,VALID,0,VALID,93.8062,VALID,0,VALID,23.5451,VALID,334,VALID,0,
2010-07-26, 01:18:04,VALID,999.904,VALID,0,VALID,93.7909,VALID,0,VALID,23.5646,VALID,315,VALID,0,
2010-07-26, 01:19:04,VALID,999.91,VALID,0,VALID,93.7985,VALID,0,VALID,23.5451,VALID,315,VALID,0,
2010-07-26, 01:20:04,VALID,999.898,VALID,0,VALID,93.8291,VALID,0,VALID,23.5451,VALID,288,VALID,0.391797,
2010-07-26, 01:21:04,VALID,999.86,VALID,0,VALID,93.8138,VALID,0,VALID,23.5469,VALID,278,VALID,1.00469,
2010-07-26, 01:22:04,VALID,999.841,VALID,0,VALID,93.8138,VALID,0,VALID,23.5256,VALID,268,VALID,0.8125,
2010-07-26, 01:23:04,VALID,999.869,VALID,0,VALID,93.8214,VALID,0,VALID,23.5256,VALID,274,VALID,0.601953,
2010-07-26, 01:24:04,VALID,999.857,VALID,0,VALID,93.8367,VALID,0,VALID,23.5061,VALID,261,VALID,0.433984,
2010-07-26, 01:25:04,VALID,999.835,VALID,0,VALID,93.8214,VALID,0,VALID,23.5256,VALID,291,VALID,0.854688,
2010-07-26, 01:26:04,VALID,999.829,VALID,0,VALID,93.8062,VALID,0,VALID,23.5061,VALID,296,VALID,0.601172,
2010-07-26, 01:27:04,VALID,999.828,VALID,0,VALID,93.8214,VALID,0,VALID,23.5061,VALID,297,VALID,0.136719,
2010-07-26, 01:28:04,VALID,999.815,VALID,0,VALID,93.8214,VALID,0,VALID,23.5061,VALID,297,VALID,0.203125,
2010-07-26, 01:29:04,VALID,999.836,VALID,0,VALID,93.8367,VALID,0,VALID,23.5079,VALID,297,VALID,0.392188,
2010-07-26, 01:30:04,VALID,999.802,VALID,0,VALID,93.8214,VALID,0,VALID,23.5061,VALID,297,VALID,0.617969,
2010-07-26, 01:31:04,VALID,999.825,VALID,0,VALID,93.8291,VALID,0,VALID,23.5256,VALID,297,VALID,0.672656,
2010-07-26, 01:32:04,VALID,999.796,VALID,0,VALID,93.8367,VALID,0,VALID,23.5061,VALID,297,VALID,0,
2010-07-26, 01:33:04,VALID,999.789,VALID,0,VALID,93.8291,VALID,0,VALID,23.5061,VALID,297,VALID,0,
2010-07-26, 01:34:04,VALID,999.735,VALID,0,VALID,93.852,VALID,0,VALID,23.4848,VALID,297,VALID,0,
2010-07-26, 01:35:04,VALID,999.751,VALID,0,VALID,93.8672,VALID,0,VALID,23.5061,VALID,297,VALID,0.401172,
2010-07-26, 01:36:04,VALID,999.679,VALID,0,VALID,93.8367,VALID,0,VALID,23.5061,VALID,298,VALID,0.531641,
2010-07-26, 01:37:04,VALID,999.665,VALID,0,VALID,93.8367,VALID,0,VALID,23.4866,VALID,310,VALID,1.14141,
2010-07-26, 01:38:04,VALID,999.626,VALID,0,VALID,93.8443,VALID,0,VALID,23.4866,VALID,301,VALID,0.943359,
2010-07-26, 01:39:04,VALID,999.61,VALID,0,VALID,93.852,VALID,0,VALID,23.4866,VALID,305,VALID,0.571094,
2010-07-26, 01:40:04,VALID,999.592,VALID,0,VALID,93.8443,VALID,0,VALID,23.5079,VALID,302,VALID,0.227734,
2010-07-26, 01:41:04,VALID,999.566,VALID,0,VALID,93.8596,VALID,0,VALID,23.5079,VALID,302,VALID,0.462891,
2010-07-26, 01:42:04,VALID,999.518,VALID,0,VALID,93.852,VALID,0,VALID,23.4866,VALID,303,VALID,0.378906,
2010-07-26, 01:43:04,VALID,999.527,VALID,0,VALID,93.8367,VALID,0,VALID,23.4671,VALID,293,VALID,0.277344,
2010-07-26, 01:44:04,VALID,999.544,VALID,0,VALID,93.8596,VALID,0,VALID,23.4671,VALID,293,VALID,0.307422,
2010-07-26, 01:45:04,VALID,999.534,VALID,0,VALID,93.8672,VALID,0,VALID,23.4475,VALID,293,VALID,0.00664063,
2010-07-26, 01:46:04,VALID,999.531,VALID,0,VALID,93.8825,VALID,0,VALID,23.4263,VALID,293,VALID,0.376953,
2010-07-26, 01:47:04,VALID,999.495,VALID,0,VALID,93.8748,VALID,0,VALID,23.428,VALID,297,VALID,0.908984,
2010-07-26, 01:48:04,VALID,999.458,VALID,0,VALID,93.8748,VALID,0,VALID,23.4475,VALID,261,VALID,0.962891,
2010-07-26, 01:49:04,VALID,999.462,VALID,0,VALID,93.8672,VALID,0,VALID,23.428,VALID,245,VALID,0.835156,
2010-07-26, 01:50:04,VALID,999.41,VALID,0,VALID,93.8596,VALID,0,VALID,23.4653,VALID,248,VALID,1.1793,
2010-07-26, 01:51:04,VALID,999.398,VALID,0,VALID,93.8443,VALID,0,VALID,23.4848,VALID,271,VALID,0.873828,
2010-07-26, 01:52:04,VALID,999.404,VALID,0,VALID,93.8596,VALID,0,VALID,23.4653,VALID,281,VALID,0.657422,
2010-07-26, 01:53:04,VALID,999.422,VALID,0,VALID,93.852,VALID,0,VALID,23.4671,VALID,271,VALID,0.616797,
2010-07-26, 01:54:04,VALID,999.432,VALID,0,VALID,93.8367,VALID,0,VALID,23.4866,VALID,268,VALID,0.533203,
2010-07-26, 01:55:04,VALID,999.432,VALID,0,VALID,93.8367,VALID,0,VALID,23.4848,VALID,261,VALID,0,
2010-07-26, 01:56:04,VALID,999.383,VALID,0,VALID,93.8443,VALID,0,VALID,23.4458,VALID,316,VALID,0,
2010-07-26, 01:57:04,VALID,999.332,VALID,0,VALID,93.8291,VALID,0,VALID,23.4671,VALID,321,VALID,1.08711,
2010-07-26, 01:58:04,VALID,999.361,VALID,0,VALID,93.8138,VALID,0,VALID,23.4866,VALID,296,VALID,0.772656,
2010-07-26, 01:59:04,VALID,999.359,VALID,0,VALID,93.7985,VALID,0,VALID,23.4866,VALID,296,VALID,0,
2010-07-26, 02:00:04,VALID,999.37,VALID,0,VALID,93.8062,VALID,0,VALID,23.4671,VALID,296,VALID,0,
2010-07-26, 02:01:04,VALID,999.369,VALID,0,VALID,93.7909,VALID,0,VALID,23.4263,VALID,284,VALID,0,
2010-07-26, 02:02:04,VALID,999.415,VALID,0,VALID,93.7833,VALID,0,VALID,23.4263,VALID,284,VALID,0,
2010-07-26, 02:03:04,VALID,999.373,VALID,0,VALID,93.7833,VALID,0,VALID,23.4263,VALID,284,VALID,0,
2010-07-26, 02:04:04,VALID,999.373,VALID,0,VALID,93.768,VALID,0,VALID,23.428,VALID,301,VALID,0,
2010-07-26, 02:05:04,VALID,999.358,VALID,0,VALID,93.7833,VALID,0,VALID,23.428,VALID,306,VALID,0,
2010-07-26, 02:06:04,VALID,999.363,VALID,0,VALID,93.7528,VALID,0.112286,VALID,23.4263,VALID,307,VALID,0.4125,
2010-07-26, 02:07:04,VALID,999.335,VALID,0,VALID,93.7528,VALID,0,VALID,23.4475,VALID,295,VALID,0.957812,
2010-07-26, 02:08:04,VALID,999.323,VALID,0,VALID,93.7528,VALID,0,VALID,23.4263,VALID,295,VALID,0.813672,
2010-07-26, 02:09:04,VALID,999.333,VALID,0,VALID,93.7451,VALID,0,VALID,23.4263,VALID,294,VALID,0.450781,
2010-07-26, 02:10:04,VALID,999.341,VALID,0,VALID,93.7299,VALID,0,VALID,23.4067,VALID,294,VALID,0.712891,
2010-07-26, 02:11:04,VALID,999.332,VALID,0,VALID,93.7375,VALID,0,VALID,23.4067,VALID,271,VALID,0.525,
2010-07-26, 02:12:04,VALID,999.356,VALID,0,VALID,93.7223,VALID,0,VALID,23.3872,VALID,251,VALID,0.619922,
2010-07-26, 02:13:04,VALID,999.336,VALID,0,VALID,93.6688,VALID,0,VALID,23.4263,VALID,247,VALID,0.531641,
2010-07-26, 02:14:04,VALID,999.352,VALID,0,VALID,93.6307,VALID,0,VALID,23.4458,VALID,247,VALID,0.722266,
2010-07-26, 02:15:04,VALID,999.326,VALID,0,VALID,93.6307,VALID,0,VALID,23.4475,VALID,230,VALID,1.39961,
2010-07-26, 02:16:04,VALID,999.321,VALID,0,VALID,93.5926,VALID,0,VALID,23.4263,VALID,226,VALID,1.40898,
2010-07-26, 02:17:04,VALID,999.36,VALID,0,VALID,93.5544,VALID,0,VALID,23.4653,VALID,220,VALID,1.27852,
2010-07-26, 02:18:04,VALID,999.334,VALID,0,VALID,93.4857,VALID,0,VALID,23.4848,VALID,234,VALID,1.06602,
2010-07-26, 02:19:04,VALID,999.337,VALID,0,VALID,93.4323,VALID,0,VALID,23.4848,VALID,235,VALID,0.527344,
2010-07-26, 02:20:04,VALID,999.381,VALID,0,VALID,93.3942,VALID,0,VALID,23.4884,VALID,225,VALID,0.635938,
2010-07-26, 02:21:04,VALID,999.397,VALID,0,VALID,93.3408,VALID,0,VALID,23.4884,VALID,227,VALID,0.747266,
2010-07-26, 02:22:04,VALID,999.378,VALID,0,VALID,93.3026,VALID,0,VALID,23.5079,VALID,229,VALID,0.821484,
2010-07-26, 02:23:04,VALID,999.367,VALID,0,VALID,93.2492,VALID,0,VALID,23.4671,VALID,236,VALID,0.151953,
2010-07-26, 02:24:04,VALID,999.394,VALID,0,VALID,93.2111,VALID,0,VALID,23.4671,VALID,236,VALID,0.0636719,
2010-07-26, 02:25:04,VALID,999.394,VALID,0,VALID,93.1958,VALID,0,VALID,23.4475,VALID,236,VALID,0,
2010-07-26, 02:26:04,VALID,999.399,VALID,0,VALID,93.1805,VALID,0,VALID,23.428,VALID,231,VALID,0,
2010-07-26, 02:27:04,VALID,999.402,VALID,0,VALID,93.1424,VALID,0,VALID,23.3908,VALID,199,VALID,0,
2010-07-26, 02:28:04,VALID,999.386,VALID,0,VALID,93.1424,VALID,0,VALID,23.3695,VALID,199,VALID,0,
2010-07-26, 02:29:04,VALID,999.389,VALID,0,VALID,93.1577,VALID,0,VALID,23.3695,VALID,199,VALID,0,
2010-07-26, 02:30:04,VALID,999.393,VALID,0,VALID,93.1577,VALID,0,VALID,23.35,VALID,199,VALID,0,
2010-07-26, 02:31:04,VALID,999.382,VALID,0,VALID,93.1577,VALID,0,VALID,23.35,VALID,199,VALID,0,
2010-07-26, 02:32:04,VALID,999.409,VALID,0,VALID,93.1729,VALID,0,VALID,23.3695,VALID,199,VALID,0,
2010-07-26, 02:33:04,VALID,999.415,VALID,0,VALID,93.1805,VALID,0,VALID,23.35,VALID,199,VALID,0,
2010-07-26, 02:34:04,VALID,999.413,VALID,0,VALID,93.1653,VALID,0,VALID,23.3305,VALID,199,VALID,0,
2010-07-26, 02:35:04,VALID,999.399,VALID,0,VALID,93.1805,VALID,0,VALID,23.35,VALID,199,VALID,0,
2010-07-26, 02:36:04,VALID,999.407,VALID,0,VALID,93.2111,VALID,0,VALID,23.3305,VALID,354,VALID,0,
2010-07-26, 02:37:04,VALID,999.386,VALID,0,VALID,93.2187,VALID,0,VALID,23.3305,VALID,354,VALID,0,
2010-07-26, 02:38:04,VALID,999.412,VALID,0,VALID,93.2187,VALID,0,VALID,23.311,VALID,359,VALID,0,
2010-07-26, 02:39:04,VALID,999.413,VALID,0,VALID,93.1424,VALID,0,VALID,23.2719,VALID,22,VALID,0,
2010-07-26, 02:40:04,VALID,999.406,VALID,0,VALID,93.0737,VALID,0,VALID,23.1939,VALID,29,VALID,0.937109,
2010-07-26, 02:41:04,VALID,999.431,VALID,0,VALID,93.0508,VALID,0,VALID,23.1354,VALID,30,VALID,0.767187,
2010-07-26, 02:42:04,VALID,999.458,VALID,0,VALID,93.0737,VALID,0,VALID,23.1159,VALID,321,VALID,0.585547,
2010-07-26, 02:43:04,VALID,999.45,VALID,0,VALID,93.1805,VALID,0,VALID,23.2134,VALID,220,VALID,1.27695,
2010-07-26, 02:44:04,VALID,999.453,VALID,0,VALID,93.2797,VALID,0,VALID,23.2134,VALID,230,VALID,0.867969,
2010-07-26, 02:45:04,VALID,999.41,VALID,0,VALID,93.3331,VALID,0,VALID,23.2524,VALID,236,VALID,0.484766,
2010-07-26, 02:46:04,VALID,999.381,VALID,0,VALID,93.3408,VALID,0,VALID,23.2524,VALID,250,VALID,0.864844,
2010-07-26, 02:47:04,VALID,999.402,VALID,0,VALID,93.3331,VALID,0,VALID,23.2915,VALID,269,VALID,0.910547,
2010-07-26, 02:48:04,VALID,999.396,VALID,0,VALID,93.3255,VALID,0,VALID,23.2915,VALID,270,VALID,0.635547,
2010-07-26, 02:49:04,VALID,999.376,VALID,0,VALID,93.295,VALID,0,VALID,23.311,VALID,271,VALID,0,
2010-07-26, 02:50:04,VALID,999.384,VALID,0,VALID,93.2492,VALID,0,VALID,23.2915,VALID,271,VALID,0,
2010-07-26, 02:51:04,VALID,999.383,VALID,0,VALID,93.1805,VALID,0,VALID,23.2719,VALID,350,VALID,0,
2010-07-26, 02:52:04,VALID,999.423,VALID,0,VALID,93.1195,VALID,0,VALID,23.2524,VALID,18,VALID,0.851172,
2010-07-26, 02:53:04,VALID,999.37,VALID,0,VALID,93.0356,VALID,0,VALID,23.1939,VALID,22,VALID,1.00703,
2010-07-26, 02:54:04,VALID,999.375,VALID,0,VALID,92.9745,VALID,0,VALID,23.1354,VALID,25,VALID,0.744922,
2010-07-26, 02:55:04,VALID,999.365,VALID,0,VALID,92.9593,VALID,0,VALID,23.1371,VALID,25,VALID,0.234375,
2010-07-26, 02:56:04,VALID,999.392,VALID,0,VALID,92.9898,VALID,0,VALID,23.0964,VALID,25,VALID,0.395312,
2010-07-26, 02:57:04,VALID,999.386,VALID,0,VALID,93.0508,VALID,0,VALID,23.1159,VALID,25,VALID,0.194922,
2010-07-26, 02:58:04,VALID,999.385,VALID,0,VALID,93.1348,VALID,0,VALID,23.1159,VALID,25,VALID,0,
2010-07-26, 02:59:04,VALID,999.401,VALID,0,VALID,93.1577,VALID,0,VALID,23.1176,VALID,25,VALID,0,
2010-07-26, 03:00:04,VALID,999.454,VALID,0,VALID,93.1958,VALID,0,VALID,23.0769,VALID,25,VALID,0,
2010-07-26, 03:01:04,VALID,999.443,VALID,0,VALID,93.2416,VALID,0,VALID,23.0573,VALID,25,VALID,0,
2010-07-26, 03:02:04,VALID,999.419,VALID,0,VALID,93.2645,VALID,0,VALID,23.0573,VALID,25,VALID,0,
2010-07-26, 03:03:04,VALID,999.417,VALID,0,VALID,93.2874,VALID,0,VALID,23.0573,VALID,25,VALID,0,
2010-07-26, 03:04:04,VALID,999.417,VALID,0,VALID,93.3484,VALID,0,VALID,23.0573,VALID,25,VALID,0,
2010-07-26, 03:05:04,VALID,999.39,VALID,0,VALID,93.356,VALID,0,VALID,23.0769,VALID,25,VALID,0,
2010-07-26, 03:06:04,VALID,999.381,VALID,0,VALID,93.3942,VALID,0,VALID,23.0769,VALID,25,VALID,0,
2010-07-26, 03:07:04,VALID,999.351,VALID,0,VALID,93.3866,VALID,0,VALID,23.0378,VALID,25,VALID,0.0117188,
2010-07-26, 03:08:04,VALID,999.353,VALID,0,VALID,93.3866,VALID,0,VALID,22.9971,VALID,25,VALID,0,
2010-07-26, 03:09:04,VALID,999.349,VALID,0,VALID,93.4171,VALID,0,VALID,23.0378,VALID,40,VALID,0,
2010-07-26, 03:10:04,VALID,999.368,VALID,0,VALID,93.4781,VALID,0,VALID,23.0769,VALID,53,VALID,0,
2010-07-26, 03:11:04,VALID,999.367,VALID,0,VALID,93.4934,VALID,0,VALID,23.0964,VALID,58,VALID,0,
2010-07-26, 03:12:04,VALID,999.37,VALID,0,VALID,93.4552,VALID,0,VALID,23.0573,VALID,58,VALID,0,
2010-07-26, 03:13:04,VALID,999.327,VALID,0,VALID,93.44,VALID,0,VALID,22.9988,VALID,58,VALID,0,
2010-07-26, 03:14:04,VALID,999.344,VALID,0,VALID,93.4018,VALID,0,VALID,22.9598,VALID,58,VALID,0,
2010-07-26, 03:15:04,VALID,999.321,VALID,0,VALID,93.4018,VALID,0,VALID,22.9598,VALID,58,VALID,0,
2010-07-26, 03:16:04,VALID,999.362,VALID,0,VALID,93.4018,VALID,0,VALID,22.919,VALID,58,VALID,0,
2010-07-26, 03:17:04,VALID,999.358,VALID,0,VALID,93.4018,VALID,0,VALID,22.9208,VALID,58,VALID,0,
2010-07-26, 03:18:04,VALID,999.353,VALID,0,VALID,93.4018,VALID,0,VALID,22.9208,VALID,58,VALID,0.530078,
2010-07-26, 03:19:04,VALID,999.344,VALID,0,VALID,93.3637,VALID,0,VALID,22.8818,VALID,53,VALID,0.634766,
2010-07-26, 03:20:04,VALID,999.337,VALID,0,VALID,93.4247,VALID,0,VALID,22.8818,VALID,53,VALID,0.663281,
2010-07-26, 03:21:04,VALID,999.381,VALID,0,VALID,93.4171,VALID,0,VALID,22.8427,VALID,39,VALID,1.18516,
2010-07-26, 03:22:04,VALID,999.44,VALID,0,VALID,93.4476,VALID,0,VALID,22.8037,VALID,46,VALID,1.33906,
2010-07-26, 03:23:04,VALID,999.41,VALID,0,VALID,93.44,VALID,0,VALID,22.8037,VALID,51,VALID,1.26055,
2010-07-26, 03:24:04,VALID,999.421,VALID,0,VALID,93.4628,VALID,0,VALID,22.7647,VALID,48,VALID,0.907422,
2010-07-26, 03:25:04,VALID,999.419,VALID,0,VALID,93.501,VALID,0,VALID,22.7257,VALID,46,VALID,0.725391,
2010-07-26, 03:26:04,VALID,999.409,VALID,0,VALID,93.5163,VALID,0,VALID,22.7062,VALID,46,VALID,0.435937,
2010-07-26, 03:27:04,VALID,999.432,VALID,0,VALID,93.5315,VALID,0,VALID,22.6672,VALID,46,VALID,0,
2010-07-26, 03:28:04,VALID,999.425,VALID,0,VALID,93.5773,VALID,0,VALID,22.6867,VALID,47,VALID,1.325,
2010-07-26, 03:29:04,VALID,999.432,VALID,0,VALID,93.6383,VALID,0,VALID,22.6867,VALID,52,VALID,1.45117,
2010-07-26, 03:30:04,VALID,999.451,VALID,0,VALID,93.6536,VALID,0,VALID,22.7062,VALID,53,VALID,1.07891,
2010-07-26, 03:31:04,VALID,999.442,VALID,0,VALID,93.6841,VALID,0,VALID,22.7062,VALID,53,VALID,0.488281,
2010-07-26, 03:32:04,VALID,999.429,VALID,0,VALID,93.6917,VALID,0,VALID,22.6867,VALID,53,VALID,0,
2010-07-26, 03:33:04,VALID,999.411,VALID,0,VALID,93.6917,VALID,0,VALID,22.6477,VALID,53,VALID,0,
2010-07-26, 03:34:04,VALID,999.414,VALID,0,VALID,93.6994,VALID,0,VALID,22.6494,VALID,53,VALID,0,
2010-07-26, 03:35:04,VALID,999.422,VALID,0,VALID,93.7146,VALID,0,VALID,22.6087,VALID,53,VALID,0,
2010-07-26, 03:36:04,VALID,999.416,VALID,0,VALID,93.7757,VALID,0,VALID,22.6672,VALID,40,VALID,0.962891,
2010-07-26, 03:37:04,VALID,999.408,VALID,0,VALID,93.7528,VALID,0,VALID,22.6689,VALID,32,VALID,1.06367,
2010-07-26, 03:38:04,VALID,999.405,VALID,0,VALID,93.7757,VALID,0,VALID,22.6087,VALID,24,VALID,1.04688,
2010-07-26, 03:39:04,VALID,999.43,VALID,0,VALID,93.7757,VALID,0,VALID,22.5501,VALID,22,VALID,0.735156,
2010-07-26, 03:40:04,VALID,999.44,VALID,0,VALID,93.7833,VALID,0,VALID,22.5323,VALID,22,VALID,0.441406,
2010-07-26, 03:41:04,VALID,999.453,VALID,0,VALID,93.7757,VALID,0,VALID,22.4721,VALID,22,VALID,0.246875,
2010-07-26, 03:42:04,VALID,999.499,VALID,0,VALID,93.8062,VALID,0,VALID,22.4526,VALID,22,VALID,0.0328125,
2010-07-26, 03:43:04,VALID,999.475,VALID,0,VALID,93.8062,VALID,0,VALID,22.4136,VALID,22,VALID,0,
2010-07-26, 03:44:04,VALID,999.478,VALID,0,VALID,93.8062,VALID,0,VALID,22.4153,VALID,22,VALID,0,
2010-07-26, 03:45:04,VALID,999.505,VALID,0,VALID,93.8291,VALID,0,VALID,22.3746,VALID,22,VALID,0.379297,
2010-07-26, 03:46:04,VALID,999.502,VALID,0,VALID,93.8367,VALID,0,VALID,22.3746,VALID,22,VALID,0.496484,
2010-07-26, 03:47:04,VALID,999.492,VALID,0,VALID,93.8443,VALID,0,VALID,22.3746,VALID,20,VALID,0.952344,
2010-07-26, 03:48:04,VALID,999.506,VALID,0,VALID,93.8825,VALID,0,VALID,22.4136,VALID,6,VALID,0.805078,
2010-07-26, 03:49:04,VALID,999.491,VALID,0,VALID,93.9206,VALID,0,VALID,22.4526,VALID,15,VALID,0.837891,
2010-07-26, 03:50:04,VALID,999.51,VALID,0,VALID,93.913,VALID,0,VALID,22.4738,VALID,25,VALID,0.823438,